WZZ1TC EDDB-EDDC

Flight info

Callsign WZZ1TC
Flight time 0h 22m
Altitude 13000
Route LUROS4B/06L LUROS M725 KOBUS/N0345F120 P31 GARKI GAR04
Aircraft A21N/M-SDE2E3FGHIRWXY/LB1

Departure

Time 2026-05-08 19:56
Airport Berlin Brandenburg Airport (EDDB)

Arrival

Time 2026-05-08 20:19
Airport Dresden Airport (EDDC)
Time Latitude Longitude Altitude Speed Heading
2026-05-08 19:29 52.36763 13.50619 153 ft 0 kts 158°
2026-05-08 19:45 52.36768 13.50616 153 ft 2 kts 158°
2026-05-08 19:45 52.36782 13.50607 153 ft 2 kts 158°
2026-05-08 19:45 52.36795 13.50598 153 ft 2 kts 158°
2026-05-08 19:45 52.36809 13.50589 153 ft 2 kts 158°
2026-05-08 19:46 52.36818 13.50584 153 ft 0 kts 158°
2026-05-08 19:48 52.36816 13.50584 153 ft 0 kts 172°
2026-05-08 19:48 52.36807 13.50554 153 ft 7 kts 257°
2026-05-08 19:48 52.36795 13.50418 153 ft 13 kts 252°
2026-05-08 19:49 52.36760 13.50266 152 ft 14 kts 248°
2026-05-08 19:49 52.36731 13.50109 152 ft 12 kts 275°
2026-05-08 19:49 52.36738 13.50075 151 ft 0 kts 302°
2026-05-08 19:50 52.36739 13.50073 152 ft 0 kts 308°
2026-05-08 19:50 52.36759 13.50047 152 ft 8 kts 330°
2026-05-08 19:50 52.36834 13.49997 152 ft 13 kts 335°
2026-05-08 19:50 52.36857 13.49859 152 ft 15 kts 246°
2026-05-08 19:51 52.36816 13.49690 152 ft 16 kts 248°
2026-05-08 19:51 52.36777 13.49511 151 ft 14 kts 268°
2026-05-08 19:51 52.36824 13.49434 151 ft 8 kts 359°
2026-05-08 19:51 52.36869 13.49476 152 ft 4 kts 38°
2026-05-08 19:52 52.36872 13.49480 152 ft 0 kts 38°
2026-05-08 19:54 52.36883 13.49494 152 ft 9 kts 37°
2026-05-08 19:55 52.36964 13.49600 153 ft 15 kts 40°
2026-05-08 19:55 52.37041 13.49731 153 ft 16 kts 48°
2026-05-08 19:55 52.37092 13.49864 154 ft 3 kts 67°
2026-05-08 19:55 52.37128 13.50016 153 ft 42 kts 68°
2026-05-08 19:56 52.37326 13.50845 154 ft 112 kts 69°
2026-05-08 19:56 52.37682 13.52351 176 ft 165 kts 69°
2026-05-08 19:56 52.38073 13.54133 750 ft 166 kts 70°
2026-05-08 19:56 52.38460 13.55852 1553 ft 161 kts 68°
2026-05-08 19:57 52.38874 13.57528 2140 ft 168 kts 66°
2026-05-08 19:57 52.39336 13.59358 2611 ft 182 kts 68°
2026-05-08 19:57 52.39817 13.61373 3084 ft 197 kts 68°
2026-05-08 19:57 52.40340 13.63579 3503 ft 217 kts 68°
2026-05-08 19:58 52.40906 13.65972 3907 ft 239 kts 69°
2026-05-08 19:58 52.41530 13.68617 4472 ft 254 kts 69°
2026-05-08 19:58 52.42165 13.71312 5278 ft 260 kts 68°
2026-05-08 19:58 52.42821 13.74098 6139 ft 263 kts 68°
2026-05-08 19:59 52.43481 13.76900 6944 ft 267 kts 68°
2026-05-08 19:59 52.44190 13.79693 7717 ft 272 kts 64°
2026-05-08 19:59 52.44916 13.82554 8469 ft 277 kts 75°
2026-05-08 19:59 52.44862 13.85705 9150 ft 285 kts 108°
2026-05-08 20:00 52.43749 13.88383 9847 ft 291 kts 141°
2026-05-08 20:00 52.41970 13.89848 10524 ft 294 kts 164°
2026-05-08 20:00 52.39946 13.90759 10963 ft 308 kts 165°
2026-05-08 20:00 52.37809 13.91768 11290 ft 326 kts 164°
2026-05-08 20:01 52.35600 13.92876 11590 ft 342 kts 163°
2026-05-08 20:01 52.33279 13.94086 11875 ft 358 kts 162°
2026-05-08 20:01 52.30853 13.95378 12153 ft 374 kts 162°
2026-05-08 20:01 52.28353 13.96722 12457 ft 386 kts 162°
2026-05-08 20:02 52.25771 13.98120 12976 ft 392 kts 162°
2026-05-08 20:02 52.23174 13.99529 13576 ft 395 kts 162°
2026-05-08 20:02 52.20581 14.00935 14137 ft 398 kts 162°
2026-05-08 20:02 52.17937 14.02367 14692 ft 401 kts 162°
2026-05-08 20:03 52.15272 14.03806 15231 ft 405 kts 163°
2026-05-08 20:03 52.12617 14.05400 15720 ft 410 kts 155°
2026-05-08 20:03 52.10169 14.07823 16099 ft 414 kts 147°
2026-05-08 20:03 52.07835 14.10483 16163 ft 414 kts 145°
2026-05-08 20:04 52.05490 14.13212 16177 ft 413 kts 145°
2026-05-08 20:04 52.03159 14.15924 16177 ft 413 kts 145°
2026-05-08 20:04 52.00818 14.18641 16180 ft 412 kts 145°
2026-05-08 20:04 51.98483 14.21356 16175 ft 413 kts 145°
2026-05-08 20:05 51.96111 14.24010 16168 ft 412 kts 150°
2026-05-08 20:05 51.93498 14.25742 16170 ft 409 kts 167°
2026-05-08 20:05 51.90672 14.26207 16173 ft 406 kts 184°
2026-05-08 20:05 51.87921 14.25355 16176 ft 402 kts 200°
2026-05-08 20:06 51.85446 14.23377 16166 ft 395 kts 212°
2026-05-08 20:06 51.83122 14.21026 15706 ft 391 kts 214°
2026-05-08 20:06 51.80872 14.18663 14968 ft 391 kts 215°
2026-05-08 20:06 51.78612 14.16274 14316 ft 389 kts 215°
2026-05-08 20:07 51.76355 14.13886 13721 ft 386 kts 215°
2026-05-08 20:07 51.74138 14.11542 13296 ft 382 kts 215°
2026-05-08 20:07 51.71918 14.09192 13180 ft 383 kts 215°
2026-05-08 20:07 51.69654 14.06790 13175 ft 384 kts 215°
2026-05-08 20:08 51.67447 14.04447 13177 ft 384 kts 215°
2026-05-08 20:08 51.65217 14.02078 13176 ft 384 kts 215°
2026-05-08 20:08 51.62989 13.99707 13174 ft 384 kts 215°
2026-05-08 20:08 51.60771 13.97352 13168 ft 369 kts 215°
2026-05-08 20:09 51.58725 13.95191 13153 ft 339 kts 215°
2026-05-08 20:09 51.56835 13.93210 13151 ft 308 kts 215°
2026-05-08 20:09 51.55096 13.91401 13128 ft 285 kts 215°
2026-05-08 20:09 51.53366 13.89996 12609 ft 283 kts 196°
2026-05-08 20:10 51.51418 13.89854 11868 ft 288 kts 169°
2026-05-08 20:10 51.49606 13.91157 11215 ft 286 kts 141°
2026-05-08 20:10 51.48259 13.93459 10623 ft 281 kts 128°
2026-05-08 20:10 51.47105 13.95938 10031 ft 278 kts 126°
2026-05-08 20:11 51.45992 13.98429 9456 ft 274 kts 125°
2026-05-08 20:11 51.44906 14.00874 8885 ft 270 kts 125°
2026-05-08 20:11 51.43815 14.03330 8307 ft 267 kts 125°
2026-05-08 20:11 51.42749 14.05727 7734 ft 263 kts 125°
2026-05-08 20:12 51.41559 14.07890 7138 ft 261 kts 145°
2026-05-08 20:12 51.39905 14.08960 6562 ft 256 kts 175°
2026-05-08 20:12 51.38167 14.08736 6042 ft 252 kts 194°
2026-05-08 20:12 51.36525 14.07889 5814 ft 243 kts 202°
2026-05-08 20:13 51.35066 14.06658 5640 ft 234 kts 215°
2026-05-08 20:13 51.33808 14.05077 5477 ft 225 kts 222°
2026-05-08 20:13 51.32677 14.03402 5305 ft 217 kts 224°
2026-05-08 20:13 51.31593 14.01797 5141 ft 209 kts 223°
2026-05-08 20:14 51.30530 14.00284 4921 ft 204 kts 221°
2026-05-08 20:14 51.29468 13.98829 4660 ft 198 kts 221°
2026-05-08 20:14 51.28447 13.97434 4475 ft 194 kts 220°
2026-05-08 20:14 51.27422 13.96034 4186 ft 192 kts 221°
2026-05-08 20:15 51.26406 13.94641 3901 ft 192 kts 220°
2026-05-08 20:15 51.25410 13.93273 3627 ft 191 kts 220°
2026-05-08 20:15 51.24411 13.91901 3351 ft 186 kts 220°
2026-05-08 20:15 51.23454 13.90586 3091 ft 180 kts 220°
2026-05-08 20:16 51.22516 13.89294 2856 ft 171 kts 220°
2026-05-08 20:16 51.21669 13.88126 2620 ft 155 kts 220°
2026-05-08 20:16 51.20879 13.87035 2365 ft 147 kts 220°
2026-05-08 20:16 51.20119 13.85964 2182 ft 147 kts 222°
2026-05-08 20:17 51.19352 13.84882 1986 ft 147 kts 219°
2026-05-08 20:17 51.18573 13.83839 1822 ft 147 kts 219°
2026-05-08 20:17 51.17802 13.82784 1663 ft 147 kts 219°
2026-05-08 20:17 51.17021 13.81742 1484 ft 145 kts 220°
2026-05-08 20:18 51.16264 13.80692 1311 ft 144 kts 219°
2026-05-08 20:18 51.15499 13.79646 1084 ft 143 kts 220°
2026-05-08 20:18 51.14757 13.78617 887 ft 141 kts 221°
2026-05-08 20:18 51.14021 13.77606 717 ft 138 kts 221°
2026-05-08 20:19 51.13415 13.76772 737 ft 90 kts 220°
2026-05-08 20:19 51.13048 13.76267 749 ft 57 kts 221°
2026-05-08 20:19 51.12805 13.75933 755 ft 33 kts 221°
2026-05-08 20:19 51.12666 13.75890 756 ft 20 kts 129°
2026-05-08 20:20 51.12606 13.76002 756 ft 5 kts 130°
2026-05-08 20:20 51.12604 13.76005 756 ft 0 kts 130°
2026-05-08 20:20 51.12604 13.76006 756 ft 0 kts 130°
2026-05-08 20:20 51.12590 13.76034 756 ft 8 kts 120°
2026-05-08 20:21 51.12608 13.76140 755 ft 14 kts 45°
2026-05-08 20:21 51.12700 13.76267 753 ft 19 kts 41°
2026-05-08 20:21 51.12788 13.76399 751 ft 15 kts 62°
2026-05-08 20:21 51.12750 13.76531 751 ft 14 kts 132°
2026-05-08 20:22 51.12695 13.76620 751 ft 6 kts 163°
2026-05-08 20:22 51.12658 13.76586 751 ft 6 kts 226°
2026-05-08 20:22 51.12633 13.76550 752 ft 0 kts 221°
2026-05-08 20:22 51.12632 13.76548 752 ft 0 kts 221°